Marion, IN

9:56 PM EDT on October 16, 2017 (GMT -0400)
Marion Municipal

Weather History for KMZZ - December, 2012

Change the Weather History Date:

Sunday, December 9, 2012

  Actual Average (KMIE) Record (KMIE)
Temperature  
Mean Temperature 44 °F -  
Max Temperature 92 °F 40 °F 61 °F (1991)
Min Temperature 37 °F 26 °F 2 °F (1977)
Degree Days  
Heating Degree Days 22    
Moisture  
Dew Point 41 °F    
Average Humidity 95    
Maximum Humidity 99    
Minimum Humidity 88    
Precipitation  
Precipitation 0.37 in - - ()
Sea Level Pressure  
Sea Level Pressure 29.87 in    
Wind  
Wind Speed 11 mph (ESE)    
Max Wind Speed 18 mph    
Max Gust Speed 24 mph    
Visibility 3 miles    
Events Fog , Rain , Snow    
Averages and records for this station are not official NWS values.
T = Trace of Precipitation, MM = Missing Value Source: NWS Daily Summary

Daily Weather History Graph

Daily Weather History Graph

Search for Another Location

Airport or City:

Trip Planner

Search our weather history database for the weather conditions in past years. The results will help you decide how hot, cold, wet, or windy it might be!

Date:

Astronomy

Dec. 09, 2012 Rise Set
Actual Time 7:54 AM EST 5:15 PM EST
Civil Twilight 7:24 AM EST 5:46 PM EST
Nautical Twilight 6:49 AM EST 6:20 PM EST
Astronomical Twilight 6:16 AM EST 6:53 PM EST
Moon 3:26 AM EST (12/9) 2:22 PM EST (12/9)
Length of Visible Light 10h 22m
Length of Day
9h 21m
Waning Crescent, 19% of the Moon is Illuminated
Dec 9
Waning Crescent
Dec 13
New
Dec 20
First Quarter
Dec 28
Full
Jan 4
Last Quarter

Hourly Weather History & Observations

Time (EST) Temp. Windchill Dew Point Humidity Pressure Visibility Wind Dir Wind Speed Gust Speed Precip Events Conditions
12:15 AM 37.6 °F 31.0 °F 35.8 °F 93% 30.08 in 7.0 mi East 9.2 mph - N/A   Overcast
12:35 AM 37.8 °F 29.8 °F 36.0 °F 93% 30.07 in 4.0 mi East 12.7 mph 16.1 mph N/A Snow Light Snow
12:55 AM 37.8 °F 31.8 °F 36.0 °F 93% 30.07 in 4.0 mi ENE 8.1 mph - N/A   Overcast
1:15 AM 37.8 °F 29.8 °F 35.6 °F 92% 30.06 in 7.0 mi ENE 12.7 mph - N/A   Overcast
1:35 AM 37.8 °F 29.4 °F 35.1 °F 90% 30.06 in 7.0 mi East 13.8 mph 17.3 mph N/A   Overcast
2:15 AM 37.6 °F 30.5 °F 34.3 °F 88% 30.07 in 3.0 mi East 10.4 mph 17.3 mph N/A Snow Light Snow
2:35 AM 37.6 °F 29.6 °F 34.3 °F 88% 30.06 in 4.0 mi East 12.7 mph 21.9 mph N/A Snow Light Snow
2:55 AM 37.6 °F 29.6 °F 34.3 °F 88% 30.07 in 5.0 mi East 12.7 mph - N/A   Overcast
3:15 AM 37.6 °F 30.0 °F 34.7 °F 89% 30.07 in 4.0 mi East 11.5 mph 20.7 mph N/A Snow Light Snow
3:35 AM 37.6 °F 29.6 °F 34.7 °F 89% 30.06 in 4.0 mi East 12.7 mph 19.6 mph N/A   Overcast
4:15 AM 37.6 °F 29.1 °F 34.9 °F 90% 30.05 in 7.0 mi East 13.8 mph 17.3 mph N/A   Overcast
4:35 AM 37.6 °F 29.1 °F 35.4 °F 92% 30.04 in 5.0 mi East 13.8 mph - N/A   Overcast
4:55 AM 37.6 °F 28.1 °F 35.6 °F 93% 30.02 in 5.0 mi East 17.3 mph 21.9 mph N/A   Overcast
5:15 AM 37.6 °F 29.6 °F 35.8 °F 93% 30.03 in 5.0 mi East 12.7 mph 17.3 mph N/A Rain Light Rain
5:35 AM 37.6 °F 29.6 °F 36.0 °F 94% 30.03 in 4.0 mi East 12.7 mph 21.9 mph N/A Rain Light Rain
5:55 AM 37.8 °F 29.8 °F 36.5 °F 95% 30.03 in 5.0 mi East 12.7 mph 19.6 mph N/A   Overcast
6:15 AM 37.8 °F 29.8 °F 36.5 °F 95% 30.02 in 5.0 mi East 12.7 mph 18.4 mph N/A   Overcast
6:35 AM 38.3 °F 30.5 °F 36.7 °F 94% 30.01 in 4.0 mi East 12.7 mph 20.7 mph N/A   Overcast
6:55 AM 38.3 °F 28.7 °F 36.9 °F 95% 29.99 in 3.0 mi East 18.4 mph 23.0 mph N/A Rain Light Rain
7:15 AM 38.3 °F 29.3 °F 36.9 °F 95% 29.99 in 3.0 mi East 16.1 mph 20.7 mph N/A   Unknown
7:35 AM 38.3 °F 29.7 °F 36.9 °F 95% 29.99 in 3.0 mi East 15.0 mph - N/A   Unknown
7:55 AM 38.3 °F 30.1 °F 36.9 °F 95% 29.98 in 2.5 mi East 13.8 mph 20.7 mph N/A   Overcast
8:15 AM 38.3 °F 29.7 °F 36.7 °F 94% 29.97 in 4.0 mi East 15.0 mph 21.9 mph N/A   Overcast
8:35 AM 38.3 °F 29.7 °F 36.7 °F 94% 29.97 in 2.0 mi East 15.0 mph 24.2 mph N/A   Unknown
8:55 AM 38.3 °F 29.7 °F 36.7 °F 94% 29.96 in 2.0 mi East 15.0 mph - N/A   Overcast
9:55 AM 38.8 °F 30.8 °F 36.5 °F 91% 29.96 in 5.0 mi ESE 13.8 mph 18.4 mph N/A   Unknown
10:15 AM 38.8 °F 30.4 °F 36.7 °F 92% 29.94 in 1.8 mi ESE 15.0 mph 19.6 mph 0.03 in   Unknown
10:35 AM 38.7 °F 31.4 °F 37.2 °F 95% 29.94 in 3.0 mi ESE 11.5 mph 16.1 mph 0.05 in Rain Light Rain
10:55 AM 38.8 °F 31.2 °F 37.4 °F 95% 29.93 in 2.5 mi ESE 12.7 mph - 0.06 in Rain Light Rain
11:15 AM 39.2 °F 32.5 °F 37.6 °F 94% 29.93 in 2.5 mi ESE 10.4 mph 19.6 mph 0.01 in Rain Light Rain
11:35 AM 39.2 °F 32.0 °F 37.8 °F 95% 29.90 in 2.0 mi East 11.5 mph - 0.02 in Rain Light Rain
11:55 AM 39.6 °F 31.7 °F 38.3 °F 95% 29.89 in 3.0 mi ESE 13.8 mph - 0.02 in   Overcast
12:15 PM 39.9 °F 33.4 °F 38.7 °F 95% 29.88 in 4.0 mi ESE 10.4 mph - N/A   Overcast
12:35 PM 40.3 °F 32.6 °F 38.8 °F 95% 29.86 in 3.0 mi ESE 13.8 mph - 0.01 in Rain Rain
12:55 PM 40.6 °F 33.8 °F 39.4 °F 95% 29.85 in 3.0 mi SE 11.5 mph - 0.03 in Rain Light Rain
1:15 PM 41.4 °F 35.2 °F 40.1 °F 95% 29.83 in 4.0 mi SE 10.4 mph - N/A Rain Light Rain
1:35 PM 41.7 °F 35.2 °F 40.5 °F 95% 29.82 in 3.0 mi SE 11.5 mph - 0.02 in Rain Light Rain
1:55 PM 41.9 °F 35.0 °F 40.8 °F 96% 29.81 in 4.0 mi SE 12.7 mph - 0.02 in Rain Light Rain
2:15 PM 42.1 °F 35.2 °F 41.0 °F 96% 29.80 in 2.0 mi ESE 12.7 mph - N/A   Overcast
2:35 PM 42.6 °F 37.2 °F 41.5 °F 96% 29.79 in 1.8 mi SE 9.2 mph - N/A Rain Light Rain
2:55 PM 43.3 °F 39.2 °F 42.4 °F 97% 29.78 in 1.2 mi SE 6.9 mph - N/A   Overcast
3:15 PM 44.1 °F 40.1 °F 43.3 °F 97% 29.77 in 0.8 mi SSE 6.9 mph - N/A   Overcast
3:35 PM 44.4 °F 40.0 °F 43.7 °F 97% 29.76 in 0.5 mi SE 8.1 mph - N/A Fog Fog
3:55 PM 45.0 °F 41.8 °F 44.2 °F 97% 29.77 in 0.8 mi SSE 5.8 mph - N/A   Overcast
4:15 PM 45.5 °F 43.2 °F 45.0 °F 98% 29.76 in 0.5 mi SSE 4.6 mph - N/A Fog Fog
4:35 PM 45.9 °F - 45.3 °F 98% 29.77 in 0.5 mi Calm Calm - N/A Fog Fog
4:55 PM 46.4 °F 43.5 °F 45.9 °F 98% 29.76 in 0.2 mi SSE 5.8 mph - N/A Fog Fog
5:15 PM 47.1 °F - 46.6 °F 98% 29.76 in 0.2 mi South 10.4 mph - N/A Fog Fog
5:35 PM 48.0 °F - 47.5 °F 98% 29.76 in 0.5 mi South 9.2 mph - N/A Fog Fog
5:55 PM 49.1 °F - 48.6 °F 98% 29.74 in 1.0 mi South 5.8 mph - N/A Rain Light Rain
6:15 PM 49.5 °F - 49.1 °F 99% 29.74 in 1.0 mi SW 5.8 mph - N/A   Overcast
6:35 PM 49.6 °F - 49.1 °F 98% 29.74 in 0.8 mi SSW 6.9 mph - N/A   Overcast
6:55 PM 50.2 °F - 49.8 °F 99% 29.74 in 2.0 mi WSW 5.8 mph - N/A   Overcast
7:15 PM 50.2 °F - 49.8 °F 99% 29.73 in 0.8 mi West 4.6 mph - N/A   Overcast
7:35 PM 49.5 °F - 49.1 °F 99% 29.74 in 0.5 mi West 5.8 mph - N/A Fog Fog
7:55 PM 49.3 °F - 48.9 °F 99% 29.72 in 0.5 mi West 4.6 mph - N/A Fog Fog
8:15 PM 48.9 °F - 48.6 °F 99% 29.72 in 0.2 mi Calm Calm - N/A Fog Fog
8:35 PM 48.7 °F - 48.2 °F 98% 29.71 in 0.5 mi NW 3.5 mph - 0.03 in Rain Light Rain
8:55 PM 48.7 °F - 48.4 °F 99% 29.69 in 0.5 mi Calm Calm - 0.03 in Fog Fog
9:15 PM 49.1 °F - 48.6 °F 98% 29.70 in 1.0 mi NW 8.1 mph - 0.07 in Rain Heavy Rain
9:55 PM 48.9 °F - 48.6 °F 99% 29.68 in 4.0 mi NW 9.2 mph - 0.21 in Rain Light Rain
10:15 PM 48.6 °F - 48.0 °F 98% 29.69 in 5.0 mi WNW 9.2 mph 18.4 mph N/A Rain Light Rain
10:35 PM 48.0 °F - 47.5 °F 98% 29.69 in 4.0 mi NW 12.7 mph - N/A   Overcast
10:55 PM 47.5 °F - 47.3 °F 99% 29.69 in 4.0 mi WNW 10.4 mph - N/A   Overcast
11:15 PM 46.9 °F - 46.6 °F 99% 29.70 in 4.0 mi WNW 10.4 mph - N/A   Overcast
11:35 PM 46.6 °F - 46.0 °F 98% 29.70 in 3.0 mi WNW 10.4 mph - N/A   Overcast
11:55 PM 45.9 °F 39.1 °F 45.5 °F 99% 29.71 in 5.0 mi West 16.1 mph - N/A   Overcast